Location: Praha
(50.0830°N, 14.4670°E)
Time: 05:05:57
(UTC+02:00)

ISS - Pass Details

Date: 26 March 2020
Orbit: 417 x 423 km, 51.6° (Epoch: 29 March)

Event Time Altitude Azimuth Distance (km) Brightness Sun altitude
Rises 19:51:32 0° 271° (W) 2,358 1.4 -14.2°
Reaches altitude 10° 19:53:38 10° 275° (W) 1,496 0.3 -14.5°
Maximum altitude 19:56:59 65° 358° (N) 465 -3.5 -15.0°
Enters shadow 19:58:36 27° 72° (ENE) 833 -2.7 -15.3°
